Time,TemperatureF,DewpointF,PressureIn,WindDirection,WindDirectionDegrees,WindSpeedMPH,WindSpeedGustMPH,Humidity,HourlyPrecipIn,Conditions,Clouds,dailyrainin,SoftwareType,DateUTC
2013-01-23 00:00:00,3.7,-3.0,30.36,WSW,257,2.0,7.0,73,0.00,,---,0.00,VWS V14.00,2013-01-23 05:00:00,
2013-01-23 00:04:00,3.7,-3.0,30.37,WSW,258,3.0,7.0,73,0.00,,---,0.00,VWS V14.00,2013-01-23 05:04:00,
2013-01-23 00:09:00,3.7,-3.0,30.36,WSW,250,3.0,7.0,73,0.00,,---,0.00,VWS V14.00,2013-01-23 05:09:00,
2013-01-23 00:14:00,3.7,-2.7,30.36,WSW,254,3.0,7.0,74,0.00,,---,0.00,VWS V14.00,2013-01-23 05:14:00,
2013-01-23 00:19:00,3.6,-3.1,30.36,West,267,3.0,9.0,73,0.00,,---,0.00,VWS V14.00,2013-01-23 05:19:00,
2013-01-23 00:24:00,3.6,-2.8,30.36,West,261,4.0,9.0,74,0.00,,---,0.00,VWS V14.00,2013-01-23 05:24:00,
2013-01-23 00:28:00,3.6,-3.1,30.36,West,259,4.0,9.0,73,0.00,,---,0.00,VWS V14.00,2013-01-23 05:28:00,
2013-01-23 00:30:00,3.6,-3.1,30.36,West,259,4.0,9.0,73,0.00,,---,0.00,VWS V14.00,2013-01-23 05:30:00,
2013-01-23 00:34:00,3.7,-2.7,30.36,West,273,4.0,8.0,74,0.00,,---,0.00,VWS V14.00,2013-01-23 05:34:00,
2013-01-23 00:39:00,3.7,-2.7,30.36,WSW,254,4.0,8.0,74,0.00,,---,0.00,VWS V14.00,2013-01-23 05:39:00,
2013-01-23 00:44:00,3.7,-2.7,30.36,WSW,256,5.0,8.0,74,0.00,,---,0.00,VWS V14.00,2013-01-23 05:44:00,
2013-01-23 00:49:00,3.7,-2.4,30.36,West,268,3.0,9.0,75,0.00,,---,0.00,VWS V14.00,2013-01-23 05:49:00,
2013-01-23 00:54:00,3.7,-2.4,30.36,West,263,3.0,9.0,75,0.00,,---,0.00,VWS V14.00,2013-01-23 05:54:00,
2013-01-23 00:59:00,3.7,-2.4,30.36,West,279,7.0,9.0,75,0.00,,---,0.00,VWS V14.00,2013-01-23 05:59:00,
2013-01-23 01:00:00,3.7,-2.4,30.36,West,267,5.0,9.0,75,0.00,,---,0.00,VWS V14.00,2013-01-23 06:00:00,
2013-01-23 01:04:00,3.7,-2.4,30.36,WSW,258,4.0,9.0,75,0.00,,---,0.00,VWS V14.00,2013-01-23 06:04:00,
2013-01-23 01:09:00,3.7,-2.2,30.36,WSW,252,2.0,9.0,76,0.00,,---,0.00,VWS V14.00,2013-01-23 06:09:00,
2013-01-23 01:14:00,3.8,-2.1,30.36,WSW,252,2.0,9.0,76,0.00,,---,0.00,VWS V14.00,2013-01-23 06:14:00,
2013-01-23 01:19:00,3.7,-2.2,30.35,WSW,249,3.0,9.0,76,0.00,,---,0.00,VWS V14.00,2013-01-23 06:19:00,
2013-01-23 01:24:00,3.7,-2.2,30.35,WSW,257,6.0,9.0,76,0.00,,---,0.00,VWS V14.00,2013-01-23 06:24:00,
2013-01-23 01:29:00,3.9,-1.7,30.36,West,259,6.0,10.0,77,0.00,,---,0.00,VWS V14.00,2013-01-23 06:29:00,
2013-01-23 01:30:00,3.9,-1.7,30.36,WSW,258,4.0,9.0,77,0.00,,---,0.00,VWS V14.00,2013-01-23 06:30:00,
2013-01-23 01:34:00,3.9,-1.7,30.36,West,261,2.0,10.0,77,0.00,,---,0.00,VWS V14.00,2013-01-23 06:34:00,
2013-01-23 01:39:00,3.9,-1.7,30.36,WSW,248,5.0,10.0,77,0.00,,---,0.00,VWS V14.00,2013-01-23 06:39:00,
2013-01-23 01:44:00,3.9,-1.7,30.36,WSW,245,5.0,10.0,77,0.00,,---,0.00,VWS V14.00,2013-01-23 06:44:00,
2013-01-23 01:49:00,4.0,-1.6,30.36,WSW,257,7.0,10.0,77,0.00,,---,0.00,VWS V14.00,2013-01-23 06:49:00,
2013-01-23 01:54:00,4.0,-1.6,30.36,WSW,246,4.0,10.0,77,0.00,,---,0.00,VWS V14.00,2013-01-23 06:54:00,
2013-01-23 01:59:00,4.0,-1.6,30.36,WSW,250,6.0,6.0,77,0.00,,---,0.00,VWS V14.00,2013-01-23 06:59:00,
2013-01-23 02:00:00,4.0,-1.6,30.36,WSW,257,4.0,10.0,77,0.00,,---,0.00,VWS V14.00,2013-01-23 07:00:00,
2013-01-23 02:04:00,4.0,-1.6,30.36,West,259,4.0,7.0,77,0.00,,---,0.00,VWS V14.00,2013-01-23 07:04:00,
2013-01-23 02:09:00,3.9,-1.4,30.36,WSW,251,2.0,7.0,78,0.00,,---,0.00,VWS V14.00,2013-01-23 07:09:00,
2013-01-23 02:14:00,3.9,-1.4,30.36,SW,236,4.0,7.0,78,0.00,,---,0.00,VWS V14.00,2013-01-23 07:14:00,
2013-01-23 02:19:00,4.0,-1.3,30.36,WSW,255,3.0,7.0,78,0.00,,---,0.00,VWS V14.00,2013-01-23 07:19:00,
2013-01-23 02:24:00,4.1,-1.2,30.36,WSW,250,7.0,8.0,78,0.00,,---,0.00,VWS V14.00,2013-01-23 07:24:00,
2013-01-23 02:29:00,4.2,-1.1,30.36,WSW,246,6.0,6.0,78,0.00,,---,0.00,VWS V14.00,2013-01-23 07:29:00,
2013-01-23 02:30:00,4.1,-1.2,30.36,WSW,251,5.0,8.0,78,0.00,,---,0.00,VWS V14.00,2013-01-23 07:30:00,
2013-01-23 02:34:00,4.2,-1.1,30.36,WSW,257,2.0,8.0,78,0.00,,---,0.00,VWS V14.00,2013-01-23 07:34:00,
2013-01-23 02:39:00,4.4,-0.9,30.36,SW,231,3.0,8.0,78,0.00,,---,0.00,VWS V14.00,2013-01-23 07:39:00,
2013-01-23 02:44:00,4.4,-0.9,30.36,WSW,244,2.0,8.0,78,0.00,,---,0.00,VWS V14.00,2013-01-23 07:44:00,
2013-01-23 02:49:00,4.6,-0.7,30.36,WSW,250,2.0,8.0,78,0.00,,---,0.00,VWS V14.00,2013-01-23 07:49:00,
2013-01-23 02:54:00,4.7,-0.6,30.36,WSW,246,4.0,8.0,78,0.00,,---,0.00,VWS V14.00,2013-01-23 07:54:00,
2013-01-23 02:59:00,4.8,-0.5,30.36,SW,236,5.0,6.0,78,0.00,,---,0.00,VWS V14.00,2013-01-23 07:59:00,
2013-01-23 03:00:00,4.8,-0.5,30.36,WSW,244,3.0,8.0,78,0.00,,---,0.00,VWS V14.00,2013-01-23 08:00:00,
2013-01-23 03:04:00,4.9,-0.4,30.36,WSW,252,5.0,6.0,78,0.00,,---,0.00,VWS V14.00,2013-01-23 08:04:00,
2013-01-23 03:09:00,5.0,-0.6,30.36,WSW,254,2.0,9.0,77,0.00,,---,0.00,VWS V14.00,2013-01-23 08:09:00,
2013-01-23 03:14:00,5.1,-0.5,30.36,WSW,240,4.0,9.0,77,0.00,,---,0.00,VWS V14.00,2013-01-23 08:14:00,
2013-01-23 03:19:00,5.1,-0.5,30.36,WSW,246,3.0,9.0,77,0.00,,---,0.00,VWS V14.00,2013-01-23 08:19:00,
2013-01-23 03:24:00,5.2,-0.2,30.36,SW,230,1.0,9.0,78,0.00,,---,0.00,VWS V14.00,2013-01-23 08:24:00,
2013-01-23 03:29:00,5.1,-0.2,30.36,WSW,251,5.0,8.0,78,0.00,,---,0.00,VWS V14.00,2013-01-23 08:29:00,
2013-01-23 03:30:00,5.1,-0.2,30.36,WSW,243,3.0,9.0,78,0.00,,---,0.00,VWS V14.00,2013-01-23 08:30:00,
2013-01-23 03:34:00,5.2,-0.2,30.36,WSW,249,5.0,8.0,78,0.00,,---,0.00,VWS V14.00,2013-01-23 08:34:00,
2013-01-23 03:39:00,5.2,-0.2,30.36,WSW,252,7.0,8.0,78,0.00,,---,0.00,VWS V14.00,2013-01-23 08:39:00,
2013-01-23 03:44:00,5.3,-0.1,30.36,West,265,8.0,9.0,78,0.00,,---,0.00,VWS V14.00,2013-01-23 08:44:00,
2013-01-23 03:49:00,5.4,0.0,30.35,West,266,5.0,9.0,78,0.00,,---,0.00,VWS V14.00,2013-01-23 08:49:00,
2013-01-23 03:54:00,5.4,0.0,30.35,West,267,4.0,9.0,78,0.00,,---,0.00,VWS V14.00,2013-01-23 08:54:00,
2013-01-23 03:59:00,5.4,0.0,30.35,West,260,6.0,8.0,78,0.00,,---,0.00,VWS V14.00,2013-01-23 08:59:00,
2013-01-23 04:00:00,5.4,0.0,30.35,WSW,248,4.0,9.0,78,0.00,,---,0.00,VWS V14.00,2013-01-23 09:00:00,
2013-01-23 04:10:00,5.4,0.0,30.35,West,260,7.0,10.0,78,0.00,,---,0.00,VWS V14.00,2013-01-23 09:10:00,
2013-01-23 04:15:00,5.3,-0.1,30.35,West,268,8.0,10.0,78,0.00,,---,0.00,VWS V14.00,2013-01-23 09:15:00,
2013-01-23 04:20:00,5.2,-0.2,30.35,SW,229,5.0,10.0,78,0.00,,---,0.00,VWS V14.00,2013-01-23 09:20:00,
2013-01-23 04:25:00,5.1,-0.2,30.35,WSW,249,6.0,10.0,78,0.00,,---,0.00,VWS V14.00,2013-01-23 09:25:00,
2013-01-23 04:30:00,5.1,-0.2,30.35,WSW,245,7.0,10.0,78,0.00,,---,0.00,VWS V14.00,2013-01-23 09:30:00,
2013-01-23 04:35:00,5.0,-0.3,30.35,West,269,6.0,10.0,78,0.00,,---,0.00,VWS V14.00,2013-01-23 09:35:00,
2013-01-23 04:40:00,5.0,-0.1,30.35,WSW,238,6.0,10.0,79,0.00,,---,0.00,VWS V14.00,2013-01-23 09:40:00,
2013-01-23 04:45:00,4.9,-0.2,30.35,WSW,237,5.0,10.0,79,0.00,,---,0.00,VWS V14.00,2013-01-23 09:45:00,
2013-01-23 04:50:00,4.8,-0.3,30.35,WSW,252,5.0,10.0,79,0.00,,---,0.00,VWS V14.00,2013-01-23 09:50:00,
2013-01-23 04:55:00,4.7,-0.4,30.35,WSW,255,8.0,10.0,79,0.00,,---,0.00,VWS V14.00,2013-01-23 09:55:00,
2013-01-23 05:00:00,4.5,-0.6,30.35,WSW,250,5.0,7.0,79,0.00,,---,0.00,VWS V14.00,2013-01-23 10:00:00,
2013-01-23 05:05:00,4.5,-0.6,30.34,WSW,241,5.0,7.0,79,0.00,,---,0.00,VWS V14.00,2013-01-23 10:05:00,
2013-01-23 05:10:00,4.4,-0.7,30.35,WSW,240,4.0,9.0,79,0.00,,---,0.00,VWS V14.00,2013-01-23 10:10:00,
2013-01-23 05:15:00,4.3,-0.5,30.35,WSW,254,2.0,9.0,80,0.00,,---,0.00,VWS V14.00,2013-01-23 10:15:00,
2013-01-23 05:20:00,4.2,-0.6,30.34,WSW,242,4.0,9.0,80,0.00,,---,0.00,VWS V14.00,2013-01-23 10:20:00,
2013-01-23 05:25:00,4.1,-0.7,30.34,SW,217,5.0,9.0,80,0.00,,---,0.00,VWS V14.00,2013-01-23 10:25:00,
2013-01-23 05:30:00,4.0,-0.8,30.34,SW,225,1.0,7.0,80,0.00,,---,0.00,VWS V14.00,2013-01-23 10:30:00,
2013-01-23 05:35:00,4.0,-0.8,30.34,SW,230,4.0,8.0,80,0.00,,---,0.00,VWS V14.00,2013-01-23 10:35:00,
2013-01-23 05:40:00,4.0,-0.5,30.34,SW,233,4.0,8.0,81,0.00,,---,0.00,VWS V14.00,2013-01-23 10:40:00,
2013-01-23 05:45:00,3.9,-0.6,30.34,SW,227,4.0,8.0,81,0.00,,---,0.00,VWS V14.00,2013-01-23 10:45:00,
2013-01-23 05:50:00,3.9,-0.9,30.34,SW,227,1.0,8.0,80,0.00,,---,0.00,VWS V14.00,2013-01-23 10:50:00,
2013-01-23 05:55:00,3.9,-0.6,30.34,SW,226,4.0,8.0,81,0.00,,---,0.00,VWS V14.00,2013-01-23 10:55:00,
2013-01-23 06:00:00,3.8,-0.7,30.34,SW,220,3.0,5.0,81,0.00,,---,0.00,VWS V14.00,2013-01-23 11:00:00,
2013-01-23 06:05:00,3.8,-0.7,30.34,SW,217,1.0,7.0,81,0.00,,---,0.00,VWS V14.00,2013-01-23 11:05:00,
2013-01-23 06:10:00,3.8,-0.7,30.34,SW,221,4.0,7.0,81,0.00,,---,0.00,VWS V14.00,2013-01-23 11:10:00,
2013-01-23 06:15:00,3.7,-0.8,30.34,SW,221,3.0,7.0,81,0.00,,---,0.00,VWS V14.00,2013-01-23 11:15:00,
2013-01-23 06:20:00,3.8,-0.7,30.33,SSW,211,3.0,7.0,81,0.00,,---,0.00,VWS V14.00,2013-01-23 11:20:00,
2013-01-23 06:25:00,3.8,-0.7,30.33,SSW,210,2.0,7.0,81,0.00,,---,0.00,VWS V14.00,2013-01-23 11:25:00,
2013-01-23 06:30:00,3.7,-0.8,30.33,SSW,210,2.0,4.0,81,0.00,,---,0.00,VWS V14.00,2013-01-23 11:30:00,
2013-01-23 06:35:00,3.6,-0.9,30.33,SSW,211,2.0,4.0,81,0.00,,---,0.00,VWS V14.00,2013-01-23 11:35:00,
2013-01-23 06:40:00,3.5,-1.0,30.33,SSW,211,3.0,4.0,81,0.00,,---,0.00,VWS V14.00,2013-01-23 11:40:00,
2013-01-23 06:45:00,3.6,-0.6,30.33,SSW,211,2.0,5.0,82,0.00,,---,0.00,VWS V14.00,2013-01-23 11:45:00,
2013-01-23 06:50:00,3.6,-0.9,30.33,SSW,211,3.0,5.0,81,0.00,,---,0.00,VWS V14.00,2013-01-23 11:50:00,
2013-01-23 06:55:00,3.5,-1.0,30.33,SSW,211,1.0,5.0,81,0.00,,---,0.00,VWS V14.00,2013-01-23 11:55:00,
2013-01-23 07:00:00,3.3,-0.9,30.33,SSW,209,0.0,6.0,82,0.00,,---,0.00,VWS V14.00,2013-01-23 12:00:00,
2013-01-23 07:05:00,3.2,-1.0,30.33,SSW,206,3.0,6.0,82,0.00,,---,0.00,VWS V14.00,2013-01-23 12:05:00,
2013-01-23 07:10:00,3.1,-1.1,30.33,SSW,209,2.0,7.0,82,0.00,,---,0.00,VWS V14.00,2013-01-23 12:10:00,
2013-01-23 07:15:00,3.1,-1.1,30.33,SSW,202,4.0,7.0,82,0.00,,---,0.00,VWS V14.00,2013-01-23 12:15:00,
2013-01-23 07:20:00,3.2,-1.0,30.33,SSW,202,3.0,7.0,82,0.00,,---,0.00,VWS V14.00,2013-01-23 12:20:00,
2013-01-23 07:25:00,3.2,-1.0,30.33,SSW,203,3.0,7.0,82,0.00,,---,0.00,VWS V14.00,2013-01-23 12:25:00,
2013-01-23 07:30:00,3.2,-1.0,30.33,SSW,200,3.0,5.0,82,0.00,,---,0.00,VWS V14.00,2013-01-23 12:30:00,
2013-01-23 07:35:00,3.2,-1.0,30.32,SSW,200,4.0,5.0,82,0.00,,---,0.00,VWS V14.00,2013-01-23 12:35:00,
2013-01-23 07:40:00,3.2,-1.0,30.32,SSW,201,4.0,6.0,82,0.00,,---,0.00,VWS V14.00,2013-01-23 12:40:00,
2013-01-23 07:45:00,3.2,-1.0,30.32,SSW,198,5.0,6.0,82,0.00,,---,0.00,VWS V14.00,2013-01-23 12:45:00,
2013-01-23 07:50:00,3.3,-0.9,30.32,SSW,199,2.0,6.0,82,0.00,,---,0.00,VWS V14.00,2013-01-23 12:50:00,
2013-01-23 07:55:00,3.3,-0.9,30.32,SSW,201,2.0,6.0,82,0.00,,---,0.00,VWS V14.00,2013-01-23 12:55:00,
2013-01-23 08:00:00,3.5,-0.8,30.32,South,191,0.0,6.0,82,0.00,,---,0.00,VWS V14.00,2013-01-23 13:00:00,
2013-01-23 08:05:00,3.6,-0.6,30.32,SSW,204,2.0,6.0,82,0.00,,---,0.00,VWS V14.00,2013-01-23 13:05:00,
2013-01-23 08:10:00,3.8,-0.5,30.32,SW,221,6.0,9.0,82,0.00,,---,0.00,VWS V14.00,2013-01-23 13:10:00,
2013-01-23 08:15:00,4.0,-0.5,30.31,SW,219,5.0,10.0,81,0.00,,---,0.00,VWS V14.00,2013-01-23 13:15:00,
2013-01-23 08:20:00,4.2,-0.3,30.31,SW,217,6.0,10.0,81,0.00,,---,0.00,VWS V14.00,2013-01-23 13:20:00,
2013-01-23 08:25:00,4.4,-0.1,30.31,SW,223,8.0,10.0,81,0.00,,---,0.00,VWS V14.00,2013-01-23 13:25:00,
2013-01-23 08:30:00,4.5,-0.3,30.31,SW,219,5.0,7.0,80,0.00,,---,0.00,VWS V14.00,2013-01-23 13:30:00,
2013-01-23 08:35:00,4.6,-0.2,30.31,SW,217,7.0,10.0,80,0.00,,---,0.00,VWS V14.00,2013-01-23 13:35:00,
2013-01-23 08:40:00,4.8,0.0,30.31,SW,224,7.0,11.0,80,0.00,,---,0.00,VWS V14.00,2013-01-23 13:40:00,
2013-01-23 08:45:00,4.9,0.1,30.30,SSW,213,7.0,11.0,80,0.00,,---,0.00,VWS V14.00,2013-01-23 13:45:00,
2013-01-23 08:50:00,5.0,-0.1,30.30,SSW,211,4.0,11.0,79,0.00,,---,0.00,VWS V14.00,2013-01-23 13:50:00,
2013-01-23 08:55:00,5.2,0.1,30.31,SW,226,7.0,11.0,79,0.00,,---,0.00,VWS V14.00,2013-01-23 13:55:00,
2013-01-23 09:00:00,5.4,0.3,30.31,SSW,208,8.0,10.0,79,0.00,,---,0.00,VWS V14.00,2013-01-23 14:00:00,
2013-01-23 09:06:00,5.5,0.4,30.31,SW,229,5.0,10.0,79,0.00,,---,0.00,VWS V14.00,2013-01-23 14:06:00,
2013-01-23 09:11:00,5.6,0.2,30.31,SW,219,6.0,11.0,78,0.00,,---,0.00,VWS V14.00,2013-01-23 14:11:00,
2013-01-23 09:16:00,5.8,0.4,30.31,SSW,213,5.0,11.0,78,0.00,,---,0.00,VWS V14.00,2013-01-23 14:16:00,
2013-01-23 09:21:00,6.1,0.7,30.31,South,175,5.0,11.0,78,0.00,,---,0.00,VWS V14.00,2013-01-23 14:21:00,
2013-01-23 09:26:00,6.3,0.9,30.31,SSW,192,6.0,11.0,78,0.00,,---,0.00,VWS V14.00,2013-01-23 14:26:00,
2013-01-23 09:30:00,6.4,1.0,30.31,SW,214,5.0,11.0,78,0.00,,---,0.00,VWS V14.00,2013-01-23 14:30:00,
2013-01-23 09:31:00,6.5,1.1,30.31,SW,231,5.0,10.0,78,0.00,,---,0.00,VWS V14.00,2013-01-23 14:31:00,
2013-01-23 09:36:00,6.7,1.3,30.31,SW,232,5.0,10.0,78,0.00,,---,0.00,VWS V14.00,2013-01-23 14:36:00,
2013-01-23 09:41:00,6.9,1.2,30.31,SSW,212,6.0,12.0,77,0.00,,---,0.00,VWS V14.00,2013-01-23 14:41:00,
2013-01-23 09:46:00,7.2,1.8,30.31,SW,214,7.0,12.0,78,0.00,,---,0.00,VWS V14.00,2013-01-23 14:46:00,
2013-01-23 09:51:00,7.3,1.9,30.31,SW,221,9.0,13.0,78,0.00,,---,0.00,VWS V14.00,2013-01-23 14:51:00,
2013-01-23 09:56:00,7.4,2.0,30.31,SW,236,9.0,13.0,78,0.00,,---,0.00,VWS V14.00,2013-01-23 14:56:00,
2013-01-23 10:00:00,7.5,2.4,30.31,SSW,199,10.0,13.0,79,0.00,,---,0.00,VWS V14.00,2013-01-23 15:00:00,
2013-01-23 10:01:00,7.7,2.6,30.30,SSW,202,3.0,10.0,79,0.00,,---,0.00,VWS V14.00,2013-01-23 15:01:00,
2013-01-23 10:06:00,7.8,2.7,30.30,SW,223,4.0,13.0,79,0.00,,---,0.00,VWS V14.00,2013-01-23 15:06:00,
2013-01-23 10:11:00,8.2,3.3,30.30,SSW,212,12.0,13.0,80,0.00,,---,0.00,VWS V14.00,2013-01-23 15:11:00,
2013-01-23 10:16:00,8.1,3.0,30.30,SW,227,8.0,14.0,79,0.00,,---,0.00,VWS V14.00,2013-01-23 15:16:00,
2013-01-23 10:21:00,8.1,3.0,30.30,SW,224,7.0,14.0,79,0.00,,---,0.00,VWS V14.00,2013-01-23 15:21:00,
2013-01-23 10:26:00,8.5,3.3,30.30,SSW,192,7.0,14.0,79,0.00,,---,0.00,VWS V14.00,2013-01-23 15:26:00,
2013-01-23 10:30:00,8.5,3.3,30.30,SW,233,7.0,14.0,79,0.00,,---,0.00,VWS V14.00,2013-01-23 15:30:00,
2013-01-23 10:31:00,8.5,3.3,30.30,SSW,201,6.0,13.0,79,0.00,,---,0.00,VWS V14.00,2013-01-23 15:31:00,
2013-01-23 10:36:00,8.7,3.5,30.30,SW,232,9.0,13.0,79,0.00,,---,0.00,VWS V14.00,2013-01-23 15:36:00,
2013-01-23 10:41:00,8.9,3.7,30.29,SW,226,10.0,15.0,79,0.00,,---,0.00,VWS V14.00,2013-01-23 15:41:00,
2013-01-23 10:46:00,9.2,3.7,30.29,SW,221,8.0,15.0,78,0.00,,---,0.00,VWS V14.00,2013-01-23 15:46:00,
2013-01-23 10:51:00,9.5,4.0,30.29,SW,217,7.0,17.0,78,0.00,,---,0.00,VWS V14.00,2013-01-23 15:51:00,
2013-01-23 10:56:00,9.8,4.3,30.29,SSW,195,6.0,17.0,78,0.00,,---,0.00,VWS V14.00,2013-01-23 15:56:00,
2013-01-23 11:00:00,9.8,4.1,30.29,SW,217,1.0,17.0,77,0.00,,---,0.00,VWS V14.00,2013-01-23 16:00:00,
2013-01-23 11:01:00,9.9,4.2,30.29,South,182,5.0,12.0,77,0.00,,---,0.00,VWS V14.00,2013-01-23 16:01:00,
2013-01-23 11:06:00,10.4,4.6,30.29,South,181,4.0,12.0,77,0.00,,---,0.00,VWS V14.00,2013-01-23 16:06:00,
2013-01-23 11:11:00,10.8,4.7,30.29,SSW,205,3.0,12.0,76,0.00,,---,0.00,VWS V14.00,2013-01-23 16:11:00,
2013-01-23 11:16:00,10.8,4.7,30.29,South,180,6.0,12.0,76,0.00,,---,0.00,VWS V14.00,2013-01-23 16:16:00,
2013-01-23 11:21:00,10.8,4.7,30.29,SW,216,6.0,13.0,76,0.00,,---,0.00,VWS V14.00,2013-01-23 16:21:00,
2013-01-23 11:26:00,10.8,4.4,30.29,SSW,211,7.0,13.0,75,0.00,,---,0.00,VWS V14.00,2013-01-23 16:26:00,
2013-01-23 11:30:00,10.7,4.6,30.28,SSE,148,4.0,13.0,76,0.00,,---,0.00,VWS V14.00,2013-01-23 16:30:00,
2013-01-23 11:31:00,10.7,4.3,30.28,SW,226,4.0,12.0,75,0.00,,---,0.00,VWS V14.00,2013-01-23 16:31:00,
2013-01-23 11:36:00,11.0,4.6,30.28,SSW,209,3.0,13.0,75,0.00,,---,0.00,VWS V14.00,2013-01-23 16:36:00,
2013-01-23 11:41:00,11.4,4.7,30.28,SW,218,6.0,13.0,74,0.00,,---,0.00,VWS V14.00,2013-01-23 16:41:00,
2013-01-23 11:46:00,11.8,5.4,30.27,SW,221,9.0,13.0,75,0.00,,---,0.00,VWS V14.00,2013-01-23 16:46:00,
2013-01-23 11:51:00,11.7,5.0,30.27,SW,227,4.0,13.0,74,0.00,,---,0.00,VWS V14.00,2013-01-23 16:51:00,
2013-01-23 11:56:00,11.9,5.2,30.27,SSW,202,10.0,14.0,74,0.00,,---,0.00,VWS V14.00,2013-01-23 16:56:00,
2013-01-23 12:00:00,11.9,5.2,30.27,South,178,9.0,14.0,74,0.00,,---,0.00,VWS V14.00,2013-01-23 17:00:00,
2013-01-23 12:01:00,12.0,5.3,30.27,SW,234,10.0,13.0,74,0.00,,---,0.00,VWS V14.00,2013-01-23 17:01:00,
2013-01-23 12:06:00,12.2,5.2,30.26,SSW,211,6.0,14.0,73,0.00,,---,0.00,VWS V14.00,2013-01-23 17:06:00,
2013-01-23 12:11:00,12.6,5.6,30.26,SSW,201,7.0,14.0,73,0.00,,---,0.00,VWS V14.00,2013-01-23 17:11:00,
2013-01-23 12:16:00,12.8,5.8,30.25,SW,217,6.0,14.0,73,0.00,,---,0.00,VWS V14.00,2013-01-23 17:16:00,
2013-01-23 12:21:00,13.4,6.4,30.25,South,188,4.0,14.0,73,0.00,,---,0.00,VWS V14.00,2013-01-23 17:21:00,
2013-01-23 12:26:00,13.5,5.6,30.25,SSW,207,10.0,16.0,70,0.00,,---,0.00,VWS V14.00,2013-01-23 17:26:00,
2013-01-23 12:30:00,13.4,5.5,30.25,South,186,7.0,16.0,70,0.00,,---,0.00,VWS V14.00,2013-01-23 17:30:00,
2013-01-23 12:31:00,13.4,5.8,30.24,SSW,209,4.0,9.0,71,0.00,,---,0.00,VWS V14.00,2013-01-23 17:31:00,
2013-01-23 12:36:00,13.6,5.7,30.24,SW,221,11.0,12.0,70,0.00,,---,0.00,VWS V14.00,2013-01-23 17:36:00,
2013-01-23 12:41:00,13.6,5.7,30.24,SW,217,9.0,13.0,70,0.00,,---,0.00,VWS V14.00,2013-01-23 17:41:00,
2013-01-23 12:46:00,13.5,5.2,30.24,SSW,209,2.0,13.0,69,0.00,,---,0.00,VWS V14.00,2013-01-23 17:46:00,
2013-01-23 12:51:00,13.6,5.3,30.23,SSW,208,6.0,13.0,69,0.00,,---,0.00,VWS V14.00,2013-01-23 17:51:00,
2013-01-23 12:56:00,13.7,5.4,30.23,SW,220,9.0,13.0,69,0.00,,---,0.00,VWS V14.00,2013-01-23 17:56:00,
2013-01-23 13:00:00,13.7,5.4,30.23,SW,234,5.0,13.0,69,0.00,,---,0.00,VWS V14.00,2013-01-23 18:00:00,
2013-01-23 13:01:00,13.7,5.4,30.23,SSW,200,3.0,8.0,69,0.00,,---,0.00,VWS V14.00,2013-01-23 18:01:00,
2013-01-23 13:06:00,13.9,5.3,30.23,West,275,5.0,14.0,68,0.00,,---,0.00,VWS V14.00,2013-01-23 18:06:00,
2013-01-23 13:11:00,14.0,5.4,30.22,WSW,255,10.0,14.0,68,0.00,,---,0.00,VWS V14.00,2013-01-23 18:11:00,
2013-01-23 13:16:00,14.1,5.8,30.22,SW,225,8.0,14.0,69,0.00,,---,0.00,VWS V14.00,2013-01-23 18:16:00,
2013-01-23 13:21:00,14.5,6.2,30.22,WSW,244,10.0,14.0,69,0.00,,---,0.00,VWS V14.00,2013-01-23 18:21:00,
2013-01-23 13:26:00,14.4,6.7,30.21,SW,224,6.0,14.0,71,0.00,,---,0.00,VWS V14.00,2013-01-23 18:26:00,
2013-01-23 13:30:00,14.3,6.6,30.21,SW,228,7.0,14.0,71,0.00,,---,0.00,VWS V14.00,2013-01-23 18:30:00,
2013-01-23 13:32:00,14.2,6.5,30.21,WSW,257,7.0,12.0,71,0.00,,---,0.00,VWS V14.00,2013-01-23 18:32:00,
2013-01-23 13:37:00,14.3,6.9,30.21,West,267,8.0,12.0,72,0.00,,---,0.00,VWS V14.00,2013-01-23 18:37:00,
2013-01-23 13:42:00,14.0,7.2,30.20,WSW,238,5.0,12.0,74,0.00,,---,0.00,VWS V14.00,2013-01-23 18:42:00,
2013-01-23 13:47:00,14.1,7.3,30.20,West,265,9.0,14.0,74,0.00,,---,0.00,VWS V14.00,2013-01-23 18:47:00,
2013-01-23 13:52:00,14.0,7.6,30.20,WSW,249,9.0,14.0,75,0.00,,---,0.00,VWS V14.00,2013-01-23 18:52:00,
2013-01-23 13:57:00,14.2,7.7,30.19,West,263,9.0,14.0,75,0.00,,---,0.00,VWS V14.00,2013-01-23 18:57:00,
2013-01-23 14:00:00,14.2,8.0,30.19,SW,231,4.0,14.0,76,0.00,,---,0.00,VWS V14.00,2013-01-23 19:00:00,
2013-01-23 14:02:00,14.5,8.3,30.19,SSW,213,12.0,12.0,76,0.00,,---,0.00,VWS V14.00,2013-01-23 19:02:00,
2013-01-23 14:07:00,14.4,8.5,30.19,SSW,209,7.0,12.0,77,0.00,,---,0.00,VWS V14.00,2013-01-23 19:07:00,
2013-01-23 14:12:00,14.5,8.6,30.18,WSW,255,8.0,13.0,77,0.00,,---,0.00,VWS V14.00,2013-01-23 19:12:00,
2013-01-23 14:17:00,14.4,8.5,30.18,WSW,248,3.0,13.0,77,0.00,,---,0.00,VWS V14.00,2013-01-23 19:17:00,
2013-01-23 14:22:00,14.5,8.9,30.18,WSW,242,8.0,13.0,78,0.00,,---,0.00,VWS V14.00,2013-01-23 19:22:00,
2013-01-23 14:27:00,14.4,9.1,30.18,WSW,248,3.0,13.0,79,0.00,,---,0.00,VWS V14.00,2013-01-23 19:27:00,
2013-01-23 14:30:00,14.4,9.1,30.18,SW,227,8.0,13.0,79,0.00,,---,0.00,VWS V14.00,2013-01-23 19:30:00,
2013-01-23 14:32:00,14.5,9.5,30.18,WSW,251,4.0,9.0,80,0.00,,---,0.00,VWS V14.00,2013-01-23 19:32:00,
2013-01-23 14:37:00,14.4,9.1,30.18,WSW,252,7.0,10.0,79,0.00,,---,0.00,VWS V14.00,2013-01-23 19:37:00,
2013-01-23 14:42:00,14.4,9.1,30.18,WSW,248,7.0,10.0,79,0.00,,---,0.00,VWS V14.00,2013-01-23 19:42:00,
2013-01-23 14:47:00,14.4,9.4,30.18,WSW,258,7.0,10.0,80,0.00,,---,0.00,VWS V14.00,2013-01-23 19:47:00,
2013-01-23 14:52:00,14.5,9.5,30.18,SW,221,2.0,10.0,80,0.00,,---,0.00,VWS V14.00,2013-01-23 19:52:00,
2013-01-23 14:57:00,14.7,9.9,30.18,SW,234,2.0,10.0,81,0.00,,---,0.00,VWS V14.00,2013-01-23 19:57:00,
2013-01-23 15:00:00,14.7,9.9,30.18,WSW,238,5.0,10.0,81,0.00,,---,0.00,VWS V14.00,2013-01-23 20:00:00,
2013-01-23 15:02:00,14.6,9.8,30.17,WSW,249,8.0,9.0,81,0.00,,---,0.00,VWS V14.00,2013-01-23 20:02:00,
2013-01-23 15:07:00,14.6,9.8,30.17,SW,215,4.0,9.0,81,0.00,,---,0.00,VWS V14.00,2013-01-23 20:07:00,
2013-01-23 15:12:00,14.9,10.4,30.17,WSW,237,4.0,9.0,82,0.00,,---,0.00,VWS V14.00,2013-01-23 20:12:00,
2013-01-23 15:17:00,15.2,10.7,30.17,WSW,252,4.0,9.0,82,0.00,,---,0.00,VWS V14.00,2013-01-23 20:17:00,
2013-01-23 15:22:00,15.1,10.6,30.17,SW,221,5.0,9.0,82,0.00,,---,0.00,VWS V14.00,2013-01-23 20:22:00,
2013-01-23 15:27:00,15.1,10.6,30.17,WSW,249,6.0,9.0,82,0.00,,---,0.00,VWS V14.00,2013-01-23 20:27:00,
2013-01-23 15:30:00,15.2,10.7,30.17,WSW,256,10.0,10.0,82,0.00,,---,0.00,VWS V14.00,2013-01-23 20:30:00,
2013-01-23 15:32:00,15.0,10.5,30.17,WSW,247,4.0,10.0,82,0.00,,---,0.00,VWS V14.00,2013-01-23 20:32:00,
2013-01-23 15:37:00,15.3,10.8,30.17,WSW,243,3.0,10.0,82,0.00,,---,0.00,VWS V14.00,2013-01-23 20:37:00,
2013-01-23 15:42:00,15.3,10.8,30.17,West,263,5.0,10.0,82,0.00,,---,0.00,VWS V14.00,2013-01-23 20:42:00,
2013-01-23 15:47:00,15.4,10.9,30.16,WSW,257,3.0,10.0,82,0.00,,---,0.00,VWS V14.00,2013-01-23 20:47:00,
2013-01-23 15:52:00,15.6,11.1,30.16,SW,230,6.0,10.0,82,0.00,,---,0.00,VWS V14.00,2013-01-23 20:52:00,
2013-01-23 15:57:00,15.7,11.2,30.16,WSW,249,8.0,10.0,82,0.00,,---,0.00,VWS V14.00,2013-01-23 20:57:00,
2013-01-23 16:00:00,15.7,11.2,30.16,WSW,248,7.0,10.0,82,0.00,,---,0.00,VWS V14.00,2013-01-23 21:00:00,
2013-01-23 16:02:00,15.5,11.0,30.16,West,263,5.0,10.0,82,0.00,,---,0.00,VWS V14.00,2013-01-23 21:02:00,
2013-01-23 16:07:00,15.4,10.9,30.16,West,265,6.0,10.0,82,0.00,,---,0.00,VWS V14.00,2013-01-23 21:07:00,
2013-01-23 16:12:00,15.2,10.7,30.16,West,269,3.0,10.0,82,0.00,,---,0.00,VWS V14.00,2013-01-23 21:12:00,
2013-01-23 16:17:00,15.0,10.5,30.16,WSW,246,3.0,10.0,82,0.00,,---,0.00,VWS V14.00,2013-01-23 21:17:00,
2013-01-23 16:22:00,15.1,10.9,30.16,WSW,246,2.0,10.0,83,0.00,,---,0.00,VWS V14.00,2013-01-23 21:22:00,
2013-01-23 16:27:00,15.2,11.0,30.16,SW,236,4.0,10.0,83,0.00,,---,0.00,VWS V14.00,2013-01-23 21:27:00,
2013-01-23 16:30:00,15.2,11.0,30.16,SW,227,5.0,10.0,83,0.00,,---,0.00,VWS V14.00,2013-01-23 21:30:00,
2013-01-23 16:32:00,15.3,11.3,30.16,WSW,244,7.0,7.0,84,0.00,,---,0.00,VWS V14.00,2013-01-23 21:32:00,
2013-01-23 16:37:00,15.3,11.3,30.16,SW,226,4.0,7.0,84,0.00,,---,0.00,VWS V14.00,2013-01-23 21:37:00,
2013-01-23 16:42:00,15.4,11.4,30.16,SW,221,5.0,7.0,84,0.00,,---,0.00,VWS V14.00,2013-01-23 21:42:00,
2013-01-23 16:47:00,15.4,11.2,30.16,WSW,257,3.0,8.0,83,0.00,,---,0.00,VWS V14.00,2013-01-23 21:47:00,
2013-01-23 16:52:00,15.5,11.3,30.16,SSW,208,4.0,8.0,83,0.00,,---,0.00,VWS V14.00,2013-01-23 21:52:00,
2013-01-23 16:57:00,15.5,11.3,30.16,WSW,257,3.0,8.0,83,0.00,,---,0.00,VWS V14.00,2013-01-23 21:57:00,
2013-01-23 17:00:00,15.5,11.3,30.16,WSW,257,1.0,8.0,83,0.00,,---,0.00,VWS V14.00,2013-01-23 22:00:00,
2013-01-23 17:02:00,15.5,11.0,30.16,SW,219,2.0,6.0,82,0.00,,---,0.00,VWS V14.00,2013-01-23 22:02:00,
2013-01-23 17:07:00,15.5,11.0,30.16,West,259,6.0,8.0,82,0.00,,---,0.00,VWS V14.00,2013-01-23 22:07:00,
2013-01-23 17:12:00,15.6,10.3,30.16,WSW,256,3.0,9.0,79,0.00,,---,0.00,VWS V14.00,2013-01-23 22:12:00,
2013-01-23 17:17:00,15.6,10.3,30.16,WSW,245,5.0,9.0,79,0.00,,---,0.00,VWS V14.00,2013-01-23 22:17:00,
2013-01-23 17:22:00,15.5,10.2,30.16,WSW,246,5.0,9.0,79,0.00,,---,0.00,VWS V14.00,2013-01-23 22:22:00,
2013-01-23 17:27:00,15.4,10.4,30.16,West,263,5.0,9.0,80,0.00,,---,0.00,VWS V14.00,2013-01-23 22:27:00,
2013-01-23 17:30:00,15.4,10.4,30.16,West,263,5.0,9.0,80,0.00,,---,0.00,VWS V14.00,2013-01-23 22:30:00,
2013-01-23 17:32:00,15.4,10.4,30.16,West,261,3.0,6.0,80,0.00,,---,0.00,VWS V14.00,2013-01-23 22:32:00,
2013-01-23 17:37:00,15.3,10.2,30.16,West,273,6.0,7.0,80,0.00,,---,0.00,VWS V14.00,2013-01-23 22:37:00,
2013-01-23 17:42:00,15.4,10.6,30.16,West,261,4.0,7.0,81,0.00,,---,0.00,VWS V14.00,2013-01-23 22:42:00,
2013-01-23 17:47:00,15.3,10.5,30.16,WSW,254,5.0,7.0,81,0.00,,---,0.00,VWS V14.00,2013-01-23 22:47:00,
2013-01-23 17:53:00,15.3,10.5,30.16,WSW,249,4.0,7.0,81,0.00,,---,0.00,VWS V14.00,2013-01-23 22:53:00,
2013-01-23 17:58:00,15.2,10.4,30.16,WSW,255,3.0,7.0,81,0.00,,---,0.00,VWS V14.00,2013-01-23 22:58:00,
2013-01-23 18:00:00,15.2,10.4,30.16,WSW,255,3.0,7.0,81,0.00,,---,0.00,VWS V14.00,2013-01-23 23:00:00,
2013-01-23 18:03:00,15.2,10.7,30.16,West,259,4.0,5.0,82,0.00,,---,0.00,VWS V14.00,2013-01-23 23:03:00,
2013-01-23 18:08:00,15.2,10.7,30.16,West,259,3.0,5.0,82,0.00,,---,0.00,VWS V14.00,2013-01-23 23:08:00,
2013-01-23 18:13:00,15.1,10.6,30.16,WSW,258,3.0,5.0,82,0.00,,---,0.00,VWS V14.00,2013-01-23 23:13:00,
2013-01-23 18:18:00,15.1,10.9,30.16,West,259,2.0,5.0,83,0.00,,---,0.00,VWS V14.00,2013-01-23 23:18:00,
2013-01-23 18:23:00,15.0,10.8,30.16,WSW,257,3.0,5.0,83,0.00,,---,0.00,VWS V14.00,2013-01-23 23:23:00,
2013-01-23 18:28:00,15.0,11.1,30.16,WSW,257,0.0,0.0,84,0.00,,---,0.00,VWS V14.00,2013-01-23 23:28:00,
2013-01-23 18:30:00,15.0,11.1,30.16,WSW,257,0.0,5.0,84,0.00,,---,0.00,VWS V14.00,2013-01-23 23:30:00,
2013-01-23 18:33:00,15.0,11.1,30.16,WSW,257,3.0,4.0,84,0.00,,---,0.00,VWS V14.00,2013-01-23 23:33:00,
2013-01-23 18:38:00,15.0,11.1,30.16,WSW,257,0.0,4.0,84,0.00,,---,0.00,VWS V14.00,2013-01-23 23:38:00,
2013-01-23 18:43:00,15.0,11.1,30.16,West,276,2.0,5.0,84,0.00,,---,0.00,VWS V14.00,2013-01-23 23:43:00,
2013-01-23 18:48:00,14.9,10.9,30.16,West,265,2.0,5.0,84,0.00,,---,0.00,VWS V14.00,2013-01-23 23:48:00,
2013-01-23 18:53:00,14.9,11.2,30.16,West,266,1.0,5.0,85,0.00,,---,0.00,VWS V14.00,2013-01-23 23:53:00,
2013-01-23 18:58:00,14.9,11.2,30.16,West,266,1.0,2.0,85,0.00,,---,0.00,VWS V14.00,2013-01-23 23:58:00,
2013-01-23 19:00:00,14.9,11.2,30.16,West,266,1.0,5.0,85,0.00,,---,0.00,VWS V14.00,2013-01-24 00:00:00,
2013-01-23 19:03:00,14.9,11.2,30.16,West,265,2.0,3.0,85,0.00,,---,0.00,VWS V14.00,2013-01-24 00:03:00,
2013-01-23 19:08:00,14.8,11.4,30.16,West,265,2.0,3.0,86,0.00,,---,0.00,VWS V14.00,2013-01-24 00:08:00,
2013-01-23 19:13:00,14.8,11.4,30.16,West,265,0.0,3.0,86,0.00,,---,0.00,VWS V14.00,2013-01-24 00:13:00,
2013-01-23 19:18:00,14.8,11.4,30.16,West,266,0.0,3.0,86,0.00,,---,0.00,VWS V14.00,2013-01-24 00:18:00,
2013-01-23 19:23:00,14.8,11.4,30.16,West,266,1.0,3.0,86,0.00,,---,0.00,VWS V14.00,2013-01-24 00:23:00,
2013-01-23 19:28:00,14.8,11.4,30.16,West,266,0.0,1.0,86,0.00,,---,0.00,VWS V14.00,2013-01-24 00:28:00,
2013-01-23 19:30:00,14.8,11.4,30.16,West,265,1.0,3.0,86,0.00,,---,0.00,VWS V14.00,2013-01-24 00:30:00,
2013-01-23 19:33:00,14.8,11.4,30.16,West,265,1.0,1.0,86,0.00,,---,0.00,VWS V14.00,2013-01-24 00:33:00,
2013-01-23 19:38:00,14.8,11.4,30.17,West,265,0.0,2.0,86,0.00,,---,0.00,VWS V14.00,2013-01-24 00:38:00,
2013-01-23 19:43:00,14.8,11.4,30.17,West,265,0.0,2.0,86,0.00,,---,0.00,VWS V14.00,2013-01-24 00:43:00,
2013-01-23 19:48:00,14.8,11.6,30.17,West,265,0.0,2.0,87,0.00,,---,0.00,VWS V14.00,2013-01-24 00:48:00,
2013-01-23 19:53:00,14.8,11.6,30.17,West,265,0.0,2.0,87,0.00,,---,0.00,VWS V14.00,2013-01-24 00:53:00,
2013-01-23 19:58:00,14.8,11.6,30.17,West,265,0.0,1.0,87,0.00,,---,0.00,VWS V14.00,2013-01-24 00:58:00,
2013-01-23 20:00:00,14.8,11.4,30.17,West,266,0.0,2.0,86,0.00,,---,0.00,VWS V14.00,2013-01-24 01:00:00,
2013-01-23 20:03:00,14.8,11.6,30.17,West,265,0.0,2.0,87,0.00,,---,0.00,VWS V14.00,2013-01-24 01:03:00,
2013-01-23 20:08:00,14.8,11.6,30.16,West,266,0.0,2.0,87,0.00,,---,0.00,VWS V14.00,2013-01-24 01:08:00,
2013-01-23 20:13:00,14.9,11.7,30.16,West,266,0.0,2.0,87,0.00,,---,0.00,VWS V14.00,2013-01-24 01:13:00,
2013-01-23 20:18:00,15.1,11.9,30.16,West,266,0.0,2.0,87,0.00,,---,0.00,VWS V14.00,2013-01-24 01:18:00,
2013-01-23 20:23:00,15.2,12.0,30.16,West,266,0.0,2.0,87,0.00,,---,0.00,VWS V14.00,2013-01-24 01:23:00,
2013-01-23 20:28:00,15.3,12.1,30.17,West,266,0.0,0.0,87,0.00,,---,0.00,VWS V14.00,2013-01-24 01:28:00,
2013-01-23 20:30:00,15.3,12.1,30.17,West,266,0.0,2.0,87,0.00,,---,0.00,VWS V14.00,2013-01-24 01:30:00,
2013-01-23 20:33:00,15.3,12.1,30.17,West,266,0.0,2.0,87,0.00,,---,0.00,VWS V14.00,2013-01-24 01:33:00,
2013-01-23 20:38:00,15.4,12.0,30.17,West,266,0.0,2.0,86,0.00,,---,0.00,VWS V14.00,2013-01-24 01:38:00,
2013-01-23 20:43:00,15.4,12.0,30.17,West,265,0.0,2.0,86,0.00,,---,0.00,VWS V14.00,2013-01-24 01:43:00,
2013-01-23 20:48:00,15.4,12.0,30.17,West,265,0.0,3.0,86,0.00,,---,0.00,VWS V14.00,2013-01-24 01:48:00,
2013-01-23 20:53:00,15.3,11.9,30.17,West,265,0.0,4.0,86,0.00,,---,0.00,VWS V14.00,2013-01-24 01:53:00,
2013-01-23 20:58:00,15.2,11.8,30.17,West,265,0.0,0.0,86,0.00,,---,0.00,VWS V14.00,2013-01-24 01:58:00,
2013-01-23 21:00:00,15.2,11.8,30.17,West,266,0.0,4.0,86,0.00,,---,0.00,VWS V14.00,2013-01-24 02:00:00,
2013-01-23 21:03:00,15.1,11.7,30.18,West,266,0.0,2.0,86,0.00,,---,0.00,VWS V14.00,2013-01-24 02:03:00,
2013-01-23 21:08:00,15.0,11.6,30.18,West,266,0.0,2.0,86,0.00,,---,0.00,VWS V14.00,2013-01-24 02:08:00,
2013-01-23 21:13:00,14.9,11.5,30.18,WNW,283,4.0,4.0,86,0.00,,---,0.00,VWS V14.00,2013-01-24 02:13:00,
2013-01-23 21:18:00,14.8,11.4,30.18,NW,316,1.0,5.0,86,0.00,,---,0.00,VWS V14.00,2013-01-24 02:18:00,
2013-01-23 21:23:00,14.6,11.4,30.18,NNW,329,1.0,5.0,87,0.00,,---,0.00,VWS V14.00,2013-01-24 02:23:00,
2013-01-23 21:28:00,14.6,11.4,30.18,NNW,329,0.0,2.0,87,0.00,,---,0.00,VWS V14.00,2013-01-24 02:28:00,
2013-01-23 21:30:00,14.6,11.4,30.18,NNW,329,0.0,5.0,87,0.00,,---,0.00,VWS V14.00,2013-01-24 02:30:00,
2013-01-23 21:34:00,14.5,11.3,30.19,NNW,330,1.0,5.0,87,0.00,,---,0.00,VWS V14.00,2013-01-24 02:34:00,
2013-01-23 21:39:00,14.4,11.2,30.19,NNW,330,2.0,5.0,87,0.00,,---,0.00,VWS V14.00,2013-01-24 02:39:00,
2013-01-23 21:44:00,14.4,11.2,30.19,NNW,329,0.0,5.0,87,0.00,,---,0.00,VWS V14.00,2013-01-24 02:44:00,
2013-01-23 21:49:00,14.3,11.1,30.19,NNW,341,3.0,5.0,87,0.00,,---,0.00,VWS V14.00,2013-01-24 02:49:00,
2013-01-23 21:54:00,14.2,11.1,30.19,NNW,341,1.0,5.0,87,0.00,,---,0.00,VWS V14.00,2013-01-24 02:54:00,
2013-01-23 21:59:00,14.1,10.9,30.19,NNW,341,1.0,3.0,87,0.00,,---,0.00,VWS V14.00,2013-01-24 02:59:00,
2013-01-23 22:00:00,14.2,11.1,30.19,NNW,342,2.0,5.0,87,0.00,,---,0.00,VWS V14.00,2013-01-24 03:00:00,
2013-01-23 22:04:00,14.1,10.9,30.19,NNW,342,1.0,3.0,87,0.00,,---,0.00,VWS V14.00,2013-01-24 03:04:00,
2013-01-23 22:09:00,14.1,10.9,30.19,NNW,342,1.0,3.0,87,0.00,,---,0.00,VWS V14.00,2013-01-24 03:09:00,
2013-01-23 22:14:00,14.1,10.7,30.19,NNW,342,0.0,3.0,86,0.00,,---,0.00,VWS V14.00,2013-01-24 03:14:00,
2013-01-23 22:19:00,14.0,10.6,30.20,NNW,342,0.0,3.0,86,0.00,,---,0.00,VWS V14.00,2013-01-24 03:19:00,
2013-01-23 22:24:00,14.0,12.8,30.20,NNW,341,1.0,3.0,95,0.00,,---,0.00,VWS V14.00,2013-01-24 03:24:00,
2013-01-23 22:29:00,14.0,10.6,30.20,NNW,341,0.0,2.0,86,0.00,,---,0.00,VWS V14.00,2013-01-24 03:29:00,
2013-01-23 22:30:00,14.0,10.6,30.20,NNW,341,2.0,3.0,86,0.00,,---,0.00,VWS V14.00,2013-01-24 03:30:00,
2013-01-23 22:34:00,13.9,10.5,30.20,NNW,342,0.0,3.0,86,0.00,,---,0.00,VWS V14.00,2013-01-24 03:34:00,
2013-01-23 22:39:00,13.8,10.4,30.20,NNW,341,0.0,3.0,86,0.00,,---,0.00,VWS V14.00,2013-01-24 03:39:00,
2013-01-23 22:44:00,13.7,10.3,30.21,NNW,341,0.0,3.0,86,0.00,,---,0.00,VWS V14.00,2013-01-24 03:44:00,
2013-01-23 22:49:00,13.6,10.2,30.21,NNW,342,0.0,3.0,86,0.00,,---,0.00,VWS V14.00,2013-01-24 03:49:00,
2013-01-23 22:54:00,13.5,10.1,30.21,NNW,341,1.0,3.0,86,0.00,,---,0.00,VWS V14.00,2013-01-24 03:54:00,
2013-01-23 22:59:00,13.4,10.0,30.21,NNW,342,0.0,1.0,86,0.00,,---,0.00,VWS V14.00,2013-01-24 03:59:00,
2013-01-23 23:00:00,13.5,10.1,30.21,NNW,342,0.0,3.0,86,0.00,,---,0.00,VWS V14.00,2013-01-24 04:00:00,
2013-01-23 23:04:00,13.3,9.9,30.21,NNW,342,0.0,2.0,86,0.00,,---,0.00,VWS V14.00,2013-01-24 04:04:00,
2013-01-23 23:09:00,13.1,9.7,30.22,NNW,341,1.0,2.0,86,0.00,,---,0.00,VWS V14.00,2013-01-24 04:09:00,
2013-01-23 23:14:00,13.0,9.6,30.22,NNW,341,0.0,2.0,86,0.00,,---,0.00,VWS V14.00,2013-01-24 04:14:00,
2013-01-23 23:19:00,12.9,9.8,30.22,NNW,342,1.0,2.0,87,0.00,,---,0.00,VWS V14.00,2013-01-24 04:19:00,
2013-01-23 23:24:00,12.8,9.7,30.22,NNW,342,0.0,2.0,87,0.00,,---,0.00,VWS V14.00,2013-01-24 04:24:00,
2013-01-23 23:29:00,12.7,9.6,30.22,NNW,341,2.0,2.0,87,0.00,,---,0.00,VWS V14.00,2013-01-24 04:29:00,
2013-01-23 23:30:00,12.7,9.6,30.22,NNW,342,1.0,2.0,87,0.00,,---,0.00,VWS V14.00,2013-01-24 04:30:00,
2013-01-23 23:34:00,12.5,9.4,30.23,NNW,341,1.0,3.0,87,0.00,,---,0.00,VWS V14.00,2013-01-24 04:34:00,
2013-01-23 23:39:00,12.4,9.3,30.23,NNW,341,0.0,3.0,87,0.00,,---,0.00,VWS V14.00,2013-01-24 04:39:00,
2013-01-23 23:44:00,12.3,9.2,30.23,NNW,341,0.0,3.0,87,0.00,,---,0.00,VWS V14.00,2013-01-24 04:44:00,
2013-01-23 23:49:00,12.1,9.0,30.23,NNW,341,0.0,3.0,87,0.00,,---,0.00,VWS V14.00,2013-01-24 04:49:00,
2013-01-23 23:54:00,12.0,8.9,30.24,NNW,341,0.0,3.0,87,0.00,,---,0.00,VWS V14.00,2013-01-24 04:54:00,
2013-01-23 23:59:00,11.9,8.8,30.24,NNW,342,0.0,1.0,87,0.00,,---,0.00,VWS V14.00,2013-01-24 04:59:00,